CW8081 Thessaloniki GR current weather conditions

sailwx.info

Wind from 275

Air temperature 23.3° C
Dewpoint 19.9° C

Last reported at 2014-Sep-15 08:41 UTC.
Time now 2014-Sep-15 09:29 UTC

Location: N 40°34' E 022°58'.
View on Google Maps.

See reports from other nearby stations

  
Tides and Currents Weather Stations Pressure Air Temp Water Temp Dewpoint Dewpoint Depression Visibility Wind Speed Wind Dir Waves Ship Positions
date/time (UTC)wind fromknots sea level pressurealtimeterstation pressurevisibilityair tempwater tempwave heightnotes
2014-Sep-15 08:41 275 23.3
2014-Sep-15 08:31 275 23.3
2014-Sep-15 08:11 171 22.8
2014-Sep-15 08:01 167 22.2
2014-Sep-15 07:41 161 21.7
2014-Sep-15 07:31 161 21.7
2014-Sep-15 07:11 155 21.7
2014-Sep-15 07:01 153 21.7
2014-Sep-15 06:41 102 21.1
2014-Sep-15 06:31 101 21.1
2014-Sep-15 06:11 101 21.1
2014-Sep-15 06:01 101 21.1
2014-Sep-15 05:41 101 20.6
2014-Sep-15 05:31 101 20.6
2014-Sep-15 05:11 101 20.6
2014-Sep-15 05:01 101 20.6
2014-Sep-15 04:41 076 20.6
2014-Sep-15 04:31 076 20.6
2014-Sep-15 04:11 075 20.6
2014-Sep-15 04:01 075 20.6
2014-Sep-15 03:41 148 20.6
2014-Sep-15 03:31 148 20.6
2014-Sep-15 03:11 148 21.1
2014-Sep-15 03:01 149 21.1
2014-Sep-15 02:41 150 21.1
2014-Sep-15 02:31 231 21.1
2014-Sep-15 02:11 343 21.1
2014-Sep-15 02:01 343 21.1
2014-Sep-15 01:41 343 21.7
2014-Sep-15 01:31 342 21.7
2014-Sep-15 01:11 333 21.7
2014-Sep-15 01:01 330 22.2
2014-Sep-15 00:41 252 22.2
2014-Sep-15 00:31 022 22.2
2014-Sep-15 00:11 022 22.2
2014-Sep-15 00:01 021 22.2
2014-Sep-14 23:41 005 22.2
2014-Sep-14 23:31 22.2
2014-Sep-14 23:11 344 22.2
2014-Sep-14 23:01 005 22.2
2014-Sep-14 22:41 047 22.2
2014-Sep-14 22:31 020 22.2
2014-Sep-14 22:11 014 22.8
2014-Sep-14 22:01 22.8
2014-Sep-14 21:41 144 23.3
2014-Sep-14 21:31 144 23.3
2014-Sep-14 21:11 144 23.3
2014-Sep-14 21:01 144 23.3
2014-Sep-14 20:41 144 23.3
2014-Sep-14 20:31 144 23.9
2014-Sep-14 20:11 144 23.9
2014-Sep-14 20:01 138 23.9
2014-Sep-14 19:41 134 23.9
2014-Sep-14 19:31 133 23.9
2014-Sep-14 19:11 127 23.9
2014-Sep-14 19:01 116 23.9
2014-Sep-14 18:41 142 24.4
2014-Sep-14 18:31 144 24.4
2014-Sep-14 18:11 142 24.4
2014-Sep-14 18:01 142 24.4
2014-Sep-14 17:41 140 24.4
2014-Sep-14 17:31 129 24.4
2014-Sep-14 17:11 169 24.4
2014-Sep-14 17:01 148 24.4
2014-Sep-14 16:41 163 25.0
2014-Sep-14 16:31 190 25.0
2014-Sep-14 16:11 175 25.0
2014-Sep-14 16:01 166 25.0
2014-Sep-14 15:41 190 25.6
2014-Sep-14 15:31 211 26.1
2014-Sep-14 15:11 211 26.1
2014-Sep-14 15:01 182 26.7
2014-Sep-14 14:41 196 27.2
2014-Sep-14 14:31 201 28.3
2014-Sep-14 14:11 186 28.3
2014-Sep-14 14:01 189 28.3
2014-Sep-14 13:41 176 28.9
2014-Sep-14 13:31 148 28.9
2014-Sep-14 13:11 157 28.3
2014-Sep-14 13:01 148 28.3
2014-Sep-14 12:41 150 28.3
2014-Sep-14 12:31 091 27.8
2014-Sep-14 12:11 126 27.2
2014-Sep-14 12:01 111 27.2
2014-Sep-14 11:41 261 27.2
2014-Sep-14 11:31 181 27.2
2014-Sep-14 11:11 267 27.2
2014-Sep-14 11:01 257 27.2
2014-Sep-14 10:41 263 26.7
2014-Sep-14 10:31 258 26.7
2014-Sep-14 10:11 196 26.7
2014-Sep-14 10:01 273 26.7
2014-Sep-14 09:41 211 26.1
2014-Sep-14 09:31 240 26.1
2014-Sep-14 09:11 240 26.7
2014-Sep-14 09:01 263 26.1
2014-Sep-14 08:41 213 25.6
2014-Sep-14 08:31 204 25.0
2014-Sep-14 08:11 267 25.0
2014-Sep-14 08:01 214 25.0
2014-Sep-14 07:41 214 24.4
2014-Sep-14 07:31 214 24.4
2014-Sep-14 07:11 213 23.9
2014-Sep-14 07:01 213 23.3
2014-Sep-14 06:41 252 22.8
2014-Sep-14 06:31 315 22.2
2014-Sep-14 06:11 057 21.7
2014-Sep-14 06:01 057 21.7
2014-Sep-14 05:41 057 21.7
2014-Sep-14 05:31 057 21.7
2014-Sep-14 05:11 057 21.1
2014-Sep-14 05:01 057 20.6
2014-Sep-14 04:41 057 20.6
2014-Sep-14 04:31 057 20.6
2014-Sep-14 04:11 057 20.6
2014-Sep-14 04:01 057 20.6
2014-Sep-14 03:41 057 20.6
2014-Sep-14 03:31 057 20.6
2014-Sep-14 03:11 057 21.1
2014-Sep-14 03:01 057 21.1
2014-Sep-14 02:41 057 21.7
2014-Sep-14 02:31 057 21.7
2014-Sep-14 02:11 057 21.7
2014-Sep-14 02:01 057 21.7
2014-Sep-14 01:41 057 21.7
2014-Sep-14 01:31 057 21.7
2014-Sep-14 01:11 057 21.7
2014-Sep-14 01:01 057 21.7
2014-Sep-14 00:41 057 21.7
2014-Sep-14 00:31 057 21.7
2014-Sep-14 00:11 057 22.2
2014-Sep-14 00:01 057 22.2
2014-Sep-13 23:41 057 22.2
2014-Sep-13 23:31 057 22.8
2014-Sep-13 23:11 057 22.8
2014-Sep-13 23:01 057 22.8
2014-Sep-13 22:41 057 22.8
2014-Sep-13 22:31 057 22.8
2014-Sep-13 22:11 057 22.8
2014-Sep-13 22:01 057 22.8
2014-Sep-13 21:41 057 23.3
2014-Sep-13 21:31 057 23.3
2014-Sep-13 21:11 057 23.3
2014-Sep-13 21:01 057 23.3
2014-Sep-13 20:41 057 23.9
2014-Sep-13 20:31 057 23.9
2014-Sep-13 20:11 074 23.9
2014-Sep-13 20:01 074 23.9
2014-Sep-13 19:41 084 23.9
2014-Sep-13 19:31 074 23.9
2014-Sep-13 19:11 090 23.9
2014-Sep-13 19:01 120 23.9
2014-Sep-13 18:41 120 23.9
2014-Sep-13 18:31 137 23.9
2014-Sep-13 18:11 207 24.4
2014-Sep-13 18:01 207 24.4
2014-Sep-13 17:41 173 24.4
2014-Sep-13 17:31 173 24.4
2014-Sep-13 17:11 173 24.4
2014-Sep-13 17:01 171 25.0
2014-Sep-13 16:41 201 25.0
2014-Sep-13 16:31 179 25.6
2014-Sep-13 16:11 202 26.1
2014-Sep-13 16:01 186 26.1
2014-Sep-13 15:41 197 26.7
2014-Sep-13 15:31 198 27.2
2014-Sep-13 15:11 206 27.2
2014-Sep-13 15:01 209 27.8
2014-Sep-13 14:41 219 28.3
2014-Sep-13 14:31 197 28.3
2014-Sep-13 14:11 192 28.9
2014-Sep-13 14:01 201 28.9
2014-Sep-13 13:41 199 28.9
2014-Sep-13 13:31 183 28.9
2014-Sep-13 13:11 215 29.4
2014-Sep-13 13:01 208 29.4
2014-Sep-13 12:41 209 28.9
2014-Sep-13 12:31 257 28.9
2014-Sep-13 12:11 226 27.8
2014-Sep-13 12:01 262 27.2
2014-Sep-13 11:41 277 27.2
2014-Sep-13 11:31 264 27.2
2014-Sep-13 11:11 257 26.7
2014-Sep-13 11:01 219 26.7
2014-Sep-13 10:41 253 26.7
2014-Sep-13 10:31 250 26.7
2014-Sep-13 10:11 229 26.7
2014-Sep-13 10:01 231 26.7
2014-Sep-13 09:41 257 26.7
2014-Sep-13 09:31 255 27.2
2014-Sep-13 09:11 214 26.7
2014-Sep-13 09:01 235 26.7